Wind_Speed
13 13 13 12 12 11 11 11 11 11 11 11 12 11 11 10 10 10 10 9 9 8 9 8 8 8 8 8 8 7 7 7 6 7 6 6 6 6 6 6 5 5 6
12 12 11 11 10 10 10 10 10 10 10 10 10 9 9 9 9 9 9 8 8 7 7 8 8 8 8 8 7 7 6 6 6 6 6 6 6 6 6 6 5 5 5
10 11 10 10 9 9 9 9 9 9 8 8 8 8 8 8 7 7 7 7 7 7 7 7 8 7 7 7 6 6 6 5 5 5 6 6 6 6 6 6 5 5 6
10 9 9 8 8 8 8 8 8 7 7 7 7 7 7 7 7 7 7 6 6 6 6 6 7 7 6 6 6 6 5 5 5 5 6 6 7 7 7 6 6 6 6
9 9 8 8 7 6 6 6 6 6 6 6 5 6 6 6 6 6 7 6 6 6 6 6 6 6 6 5 5 5 5 5 5 5 6 6 7 7 7 6 6 5 6
8 8 8 7 6 6 5 5 5 5 5 5 5 5 5 5 5 6 6 6 6 5 5 5 5 5 5 5 5 5 5 5 5 5 5 6 6 6 6 6 6 6 6
8 7 7 6 6 5 4 4 4 3 3 4 4 4 4 5 5 4 5 5 5 5 5 4 4 4 4 4 5 5 5 5 5 5 5 5 5 6 6 6 6 6 6
6 7 6 5 4 4 3 3 3 2 2 3 3 3 4 4 4 5 5 5 5 5 5 4 4 4 4 4 4 4 4 5 5 5 5 5 5 5 6 6 6 6 5
5 5 5 5 4 3 3 3 3 2 2 2 2 3 4 4 4 5 5 5 5 4 4 4 4 4 4 4 4 4 4 4 4 4 4 4 5 5 5 5 6 6 5
4 4 4 4 3 3 2 3 3 2 2 2 2 3 3 4 4 4 4 4 4 4 4 4 4 4 4 4 3 3 3 4 4 4 3 4 4 5 4 5 5 5 5
3 3 3 2 2 2 2 2 2 1 1 1 1 2 2 3 3 4 4 4 4 4 4 4 3 3 3 3 3 2 2 3 4 4 4 3 3 3 4 4 4 4 4
1 1 1 1 1 0 0 1 1 0 0 1 1 2 3 3 3 3 3 4 4 4 3 3 3 3 3 3 2 2 2 2 3 3 3 3 2 3 3 3 3 3 3
0 1 0 1 1 1 1 1 1 1 1 1 2 3 3 3 3 3 4 4 4 4 3 3 4 3 3 2 2 2 1 2 3 3 3 2 2 2 2 2 2 3 3
0 0 0 1 1 2 2 2 2 2 2 2 3 3 4 4 4 4 4 4 4 4 4 4 4 4 3 3 2 2 1 2 2 2 2 1 1 1 1 2 2 3 3
1 1 1 1 2 2 2 3 3 2 3 4 4 4 4 5 4 4 4 4 4 4 4 5 5 4 3 3 2 3 2 2 2 2 2 2 2 2 2 2 2 3 3
1 2 2 2 2 3 3 3 3 3 4 4 5 5 5 5 5 5 5 5 5 5 5 5 5 5 4 3 3 3 3 3 3 3 3 3 3 3 3 2 3 3 3
2 2 3 3 3 4 5 5 5 4 5 5 5 6 6 6 6 6 6 6 6 6 5 5 5 5 5 5 4 3 4 4 3 3 3 3 3 3 3 3 3 3 3
3 3 3 4 5 5 6 6 6 6 6 6 7 7 7 7 7 7 7 7 7 7 6 6 6 5 5 5 5 4 4 4 4 3 3 3 3 3 3 3 3 4 4
4 4 4 5 6 7 6 7 7 7 7 7 8 8 8 8 8 8 8 8 8 7 6 6 6 6 6 6 6 6 5 5 4 4 3 3 3 3 4 4 4 4 4
5 6 6 7 7 8 7 8 8 8 8 8 8 9 9 10 9 9 9 9 9 8 7 7 7 7 7 7 6 6 5 5 5 4 3 3 3 4 4 5 5 5 5
6 7 7 8 8 8 8 9 9 9 10 10 9 10 9 10 10 9 9 9 8 8 8 8 8 8 8 8 7 7 6 6 6 5 4 4 4 4 4 5 5 5 6
7 8 8 9 9 9 9 10 10 10 11 11 10 10 9 9 9 8 8 9 9 9 8 8 8 8 8 7 7 7 6 6 6 5 5 5 5 5 5 6 5 5 6
8 8 9 9 9 9 10 10 10 10 10 10 10 10 9 9 9 9 9 9 9 9 9 8 8 8 8 7 7 7 6 6 5 6 6 6 6 6 6 6 6 6 7
9 9 9 9 9 10 10 10 10 11 11 10 10 10 9 9 9 9 10 10 10 9 9 9 8 8 8 8 7 8 7 7 6 6 7 7 7 7 7 7 7 7 8
10 10 10 10 10 11 11 11 11 11 11 11 10 10 9 10 10 10 11 10 10 10 10 9 9 9 9 9 9 9 8 8 8 7 7 7 8 8 8 8 8 8 8
12 11 11 11 11 11 11 11 12 12 12 11 11 11 10 10 10 10 10 10 10 10 10 9 10 10 10 10 10 10 9 9 9 8 8 9 9 8 8 8 9 9 9
Wind_Direction
103 103 101 101 102 103 105 105 103 103 104 104 101 101 101 96 95 95 92 91 91 91 89 85 80 79 80 80 76 73 72 70 66 62 61 58 51 49 52 52 54 53 55
105 105 104 106 105 105 106 107 106 104 103 101 97 94 94 92 89 90 92 93 91 91 91 85 82 78 76 75 72 69 67 64 64 68 59 54 49 51 51 49 49 51 61
107 107 107 107 106 107 109 110 106 103 102 100 95 92 91 89 83 83 88 86 85 86 86 82 78 73 72 67 65 66 64 67 69 65 56 50 48 53 53 54 53 60 65
108 111 110 110 109 109 113 112 108 104 101 99 96 95 92 89 87 88 86 83 80 80 80 80 68 67 63 63 64 62 61 60 63 62 58 53 51 52 56 59 54 50 62
109 110 114 111 112 112 115 114 109 106 103 99 95 94 93 91 94 95 92 90 87 85 82 70 66 64 62 64 62 57 53 55 58 59 57 57 50 51 57 56 55 55 62
114 110 111 113 113 114 118 117 112 110 105 100 95 93 90 87 92 89 83 87 84 81 76 70 65 64 63 60 56 53 50 54 55 52 54 52 47 51 57 60 62 60 60
116 113 112 113 114 116 119 120 115 113 110 103 94 89 84 79 76 76 71 80 79 78 71 63 61 62 59 54 55 58 55 49 46 44 48 48 46 58 62 63 61 61 59
116 116 111 107 110 117 120 119 117 112 107 99 94 90 83 73 63 62 66 71 71 68 65 59 58 55 54 52 50 51 48 45 47 44 47 49 50 56 57 62 58 55 53
121 121 111 104 102 111 114 109 118 111 103 99 91 82 77 66 59 60 62 56 60 59 55 50 46 40 37 39 39 36 37 40 40 43 45 50 51 49 55 62 57 54 48
131 125 117 104 100 99 100 101 104 103 95 91 82 70 59 56 56 53 53 49 49 46 42 39 37 36 32 33 34 35 35 33 38 49 54 56 56 55 59 61 60 56 49
136 129 120 108 101 102 90 89 93 95 90 67 59 55 41 40 44 46 40 39 30 30 29 26 26 27 29 26 24 27 24 34 47 50 53 57 61 66 63 66 59 52 48
136 129 124 132 130 129 88 67 44 335 37 10 12 16 16 17 23 21 18 19 17 12 11 11 5 6 9 11 7 8 17 35 39 42 47 51 59 64 63 66 51 34 36
146 123 160 253 266 287 298 324 312 301 308 329 341 353 348 351 351 353 355 3 8 4 358 354 351 353 349 340 342 348 349 38 41 44 45 45 48 52 48 47 25 17 23
4 27 301 278 280 288 299 296 300 284 280 293 311 326 335 339 340 338 344 349 346 348 350 343 342 342 343 339 342 325 343 8 9 4 6 13 3 3 4 4 357 356 2
25 11 349 320 284 286 301 308 308 302 297 301 307 315 324 329 326 329 332 336 333 331 331 330 333 335 340 349 340 328 312 324 326 322 334 325 317 314 315 319 328 343 339
355 354 338 326 310 307 309 307 304 304 305 308 312 314 319 323 316 315 320 323 325 320 316 320 325 324 323 321 321 324 321 318 324 321 316 314 310 305 298 299 305 324 328
338 326 321 318 317 316 307 302 300 297 297 304 311 313 313 316 312 308 312 315 315 310 303 302 306 311 314 311 310 316 322 320 308 312 313 313 317 309 295 296 298 310 320
323 322 317 322 315 313 310 307 301 295 295 299 304 305 307 309 307 307 309 310 311 304 295 294 298 302 304 302 305 309 311 313 303 308 308 308 309 310 304 297 299 310 317
310 313 313 314 308 305 307 304 300 297 295 300 302 300 300 304 304 304 308 308 306 300 290 293 297 301 295 297 300 304 304 303 297 301 305 308 298 305 306 296 292 301 308
315 309 309 310 307 303 305 305 299 297 295 296 297 300 298 301 301 301 305 305 305 301 292 289 290 294 294 295 296 298 303 300 293 294 303 315 317 312 304 301 296 298 305
308 310 311 308 303 302 304 305 299 297 298 298 294 295 299 301 299 301 304 303 306 297 289 287 285 293 294 292 293 292 295 300 285 284 294 297 303 307 305 307 306 300 300
307 308 309 308 305 306 306 307 303 301 302 301 298 298 303 303 306 309 304 304 305 302 293 290 289 292 295 294 293 294 296 298 292 289 292 295 295 296 297 306 308 308 304
310 308 306 309 312 311 308 307 307 305 303 304 302 299 302 302 304 311 309 304 301 299 295 289 291 294 296 297 296 296 297 295 292 292 291 288 288 296 299 302 307 309 306
304 305 306 309 308 308 310 307 306 304 301 295 296 298 299 298 298 304 305 304 302 299 296 290 289 288 290 295 295 293 294 301 298 294 292 289 288 295 298 303 303 308 308
301 301 301 303 304 306 305 302 302 301 300 295 292 292 295 298 298 300 302 300 300 297 293 288 285 289 291 291 289 291 293 296 296 296 293 290 289 290 293 299 304 305 307
295 296 295 296 298 302 303 300 297 297 295 292 291 286 286 293 295 298 300 297 297 297 291 287 285 290 292 292 287 287 289 289 289 289 286 289 290 291 292 296 299 299 302
Height
5886 5886 5887 5888 5888 5889 5889 5889 5889 5889 5889 5889 5889 5889 5890 5890 5890 5890 5890 5891 5891 5891 5891 5891 5891 5891 5891 5891 5891 5891 5891 5892 5892 5892 5891 5891 5891 5891 5890 5891 5890 5890 5890
5888 5888 5889 5890 5890 5891 5891 5891 5891 5891 5891 5891 5891 5891 5892 5892 5892 5892 5892 5892 5893 5893 5893 5893 5893 5893 5893 5893 5893 5893 5893 5893 5893 5892 5892 5892 5892 5891 5891 5891 5891 5891 5891
5889 5890 5891 5892 5892 5893 5893 5893 5893 5893 5893 5893 5893 5893 5893 5893 5894 5894 5894 5894 5894 5894 5894 5894 5894 5894 5894 5894 5894 5894 5894 5894 5894 5893 5893 5893 5893 5892 5892 5892 5892 5892 5892
5891 5892 5893 5893 5894 5894 5894 5895 5895 5895 5895 5895 5895 5895 5895 5895 5895 5895 5895 5895 5895 5895 5896 5896 5896 5896 5896 5895 5895 5895 5895 5895 5894 5894 5894 5894 5894 5893 5893 5893 5893 5893 5893
5893 5893 5894 5895 5896 5896 5896 5896 5896 5897 5897 5897 5897 5897 5897 5897 5897 5896 5896 5897 5897 5897 5897 5897 5897 5897 5897 5897 5896 5896 5896 5896 5895 5895 5895 5895 5894 5894 5894 5894 5894 5894 5894
5895 5895 5896 5896 5897 5897 5898 5898 5898 5898 5898 5898 5898 5898 5898 5898 5898 5898 5898 5898 5898 5898 5898 5898 5898 5898 5898 5898 5897 5897 5897 5897 5896 5896 5896 5896 5896 5895 5895 5895 5895 5895 5895
5896 5897 5897 5898 5898 5899 5899 5899 5899 5899 5899 5899 5899 5899 5899 5899 5900 5899 5899 5899 5899 5899 5899 5899 5899 5899 5899 5898 5898 5898 5898 5898 5897 5897 5897 5897 5897 5896 5896 5896 5896 5896 5896
5898 5898 5899 5899 5899 5900 5900 5900 5900 5900 5900 5900 5900 5901 5901 5901 5901 5901 5900 5900 5900 5900 5900 5900 5900 5900 5899 5899 5899 5899 5899 5898 5898 5898 5898 5898 5898 5897 5897 5897 5897 5897 5897
5899 5900 5900 5900 5900 5901 5901 5901 5901 5901 5901 5902 5902 5902 5902 5902 5902 5902 5901 5901 5901 5901 5901 5901 5901 5901 5900 5900 5900 5900 5899 5899 5899 5899 5899 5898 5898 5898 5898 5898 5898 5897 5897
5901 5901 5901 5901 5902 5902 5902 5902 5902 5902 5902 5903 5903 5903 5903 5903 5903 5903 5902 5902 5902 5902 5902 5902 5902 5901 5901 5901 5900 5900 5900 5900 5899 5899 5899 5899 5899 5899 5899 5899 5899 5898 5898
5902 5902 5902 5902 5903 5903 5903 5903 5903 5903 5903 5904 5904 5904 5904 5904 5904 5904 5903 5903 5903 5903 5902 5902 5902 5902 5901 5901 5901 5901 5900 5900 5900 5900 5899 5899 5900 5900 5900 5900 5899 5899 5899
5903 5903 5903 5903 5904 5904 5904 5904 5904 5904 5904 5904 5905 5905 5905 5905 5905 5905 5904 5904 5904 5903 5903 5903 5903 5902 5902 5902 5901 5901 5900 5901 5901 5900 5900 5900 5900 5900 5900 5900 5900 5900 5900
5903 5904 5904 5904 5904 5905 5905 5905 5905 5905 5905 5905 5905 5905 5905 5905 5905 5905 5905 5904 5904 5904 5903 5903 5903 5902 5902 5902 5902 5901 5900 5901 5901 5900 5900 5900 5901 5901 5901 5901 5900 5900 5900
5904 5904 5905 5905 5905 5905 5905 5906 5906 5906 5906 5906 5906 5906 5906 5906 5905 5905 5905 5905 5904 5904 5903 5903 5903 5903 5902 5902 5902 5902 5901 5901 5901 5901 5900 5901 5901 5901 5901 5901 5901 5900 5900
5905 5905 5905 5905 5906 5906 5906 5906 5906 5906 5906 5906 5906 5906 5906 5906 5906 5905 5905 5904 5904 5904 5903 5903 5903 5903 5902 5902 5902 5902 5901 5901 5901 5901 5901 5901 5901 5901 5901 5901 5901 5900 5900
5905 5906 5906 5906 5906 5906 5906 5906 5907 5906 5907 5907 5906 5906 5906 5906 5906 5905 5905 5904 5904 5904 5903 5903 5903 5902 5902 5902 5902 5901 5901 5901 5901 5901 5901 5900 5901 5901 5900 5900 5900 5900 5900
5906 5906 5906 5906 5907 5907 5907 5907 5907 5907 5907 5907 5906 5906 5906 5905 5905 5905 5905 5904 5903 5903 5902 5902 5902 5902 5902 5902 5901 5901 5901 5901 5900 5900 5900 5900 5900 5900 5900 5900 5900 5900 5899
5906 5907 5907 5907 5907 5907 5907 5907 5907 5907 5906 5906 5906 5906 5905 5905 5904 5904 5904 5903 5903 5902 5902 5901 5901 5901 5901 5901 5900 5900 5900 5900 5899 5899 5899 5899 5899 5899 5899 5899 5899 5899 5899
5906 5907 5907 5907 5907 5907 5906 5906 5906 5906 5906 5905 5905 5905 5905 5904 5904 5903 5903 5902 5902 5901 5901 5901 5900 5900 5900 5900 5900 5899 5899 5899 5899 5899 5899 5899 5898 5898 5898 5898 5898 5898 5898
5906 5906 5907 5906 5906 5906 5906 5905 5905 5905 5905 5904 5904 5904 5904 5903 5903 5902 5902 5901 5901 5900 5900 5900 5900 5900 5899 5899 5899 5899 5898 5898 5898 5898 5898 5898 5898 5898 5898 5897 5897 5897 5897
5906 5906 5906 5906 5905 5905 5905 5905 5904 5904 5904 5903 5903 5903 5902 5902 5901 5901 5901 5900 5900 5899 5899 5898 5898 5898 5898 5898 5898 5898 5897 5897 5897 5897 5897 5897 5897 5897 5897 5896 5896 5896 5896
5905 5905 5905 5904 5904 5904 5904 5903 5903 5903 5902 5902 5902 5901 5901 5900 5900 5900 5899 5899 5899 5898 5897 5897 5897 5897 5897 5897 5897 5896 5896 5896 5895 5895 5895 5896 5896 5895 5896 5895 5895 5894 5894
5904 5904 5904 5903 5903 5902 5902 5902 5901 5901 5901 5900 5900 5900 5899 5899 5899 5899 5898 5898 5897 5897 5896 5896 5895 5895 5895 5895 5895 5895 5895 5894 5894 5895 5894 5894 5894 5894 5894 5894 5893 5893 5892
5903 5903 5902 5902 5901 5901 5901 5900 5900 5899 5899 5899 5898 5898 5898 5898 5897 5897 5897 5896 5896 5895 5895 5894 5894 5894 5894 5894 5894 5893 5893 5893 5893 5893 5893 5892 5892 5892 5892 5892 5891 5891 5890
5901 5901 5900 5900 5900 5900 5899 5898 5898 5898 5897 5897 5896 5896 5897 5896 5896 5896 5895 5894 5894 5893 5893 5893 5893 5892 5892 5892 5892 5892 5891 5891 5891 5891 5891 5891 5891 5890 5890 5889 5889 5889 5888
5899 5899 5899 5898 5898 5898 5897 5896 5896 5895 5895 5894 5894 5894 5894 5894 5894 5894 5893 5892 5892 5891 5890 5890 5890 5890 5890 5890 5889 5889 5889 5889 5889 5889 5889 5889 5889 5888 5888 5887 5887 5887 5886